[[{"header":{"parameterUnit":"m.s-1","parameterCategory":2,"la1":30.2991,"la2":30.254,"lo1":-89.0895,"lo2":-89.0444,"dy":0.0017,"dx":0.0017,"nx":28,"ny":28,"refTime":"2023-07-29T09:00:00:Z","depth":"0","parameterNumber":2,"parameterNumberName":"U-component_of_CURRENTS"},"data":[0,0,0,0,0,0,0,0,0,0,0,0,0,0,0,0,0,0,0,0,0,0,0,0,0,0,0,0,0,0,0,0,0,0,0,0,0,0,0,0,0,0,0,0,0,0,0,0,0,0,0,0,0,0,0,0,0,0,0.5309,0.5309,0,0.5283,0.5282,0.5282,0.5262,0.5262,0.5262,0.5263,0.5168,0.5165,0.5162,0,0,0,0,0,0,0,0,0,0,0,0,0,0.5271,0.5272,0.5309,0.5309,0.531,0.5283,0.5282,0.5282,0.5262,0.5262,0.5262,0.5263,0.5168,0.5165,0.5162,0,0,0,0,0,0,0,0,0,0,0,0,0,0.5266,0.5272,0.5309,0.53,0.53,0.5283,0.5282,0.5281,0.5262,0.5262,0.5262,0.5263,0.517,0.5166,0.5161,0.5127,0,0,0.5149,0.5147,0,0,0,0,0,0,0,0,0.5266,0.5267,0.5301,0.5301,0.53,0.5281,0.5235,0.5228,0.5262,0.5271,0.5263,0.5263,0.5202,0.5195,0.5183,0.5123,0.5119,0.5148,0.5146,0.5144,0.5143,0,0,0,0,0,0,0,0.5267,0.5268,0.5294,0.5302,0.5301,0.5274,0.5273,0.5233,0.5229,0.527,0.527,0.5275,0.52,0.5187,0.5181,0.5117,0.5148,0.5145,0.5142,0.514,0.5055,0.5055,0,0,0,0,0,0,0.5284,0.5268,0.5295,0.5294,0.529,0.5275,0.5274,0.5282,0.5231,0.5226,0.5274,0.5274,0.5194,0.5186,0.5177,0.5206,0.5144,0.514,0.5138,0.5054,0.5055,0.5055,0,0,0,0,0,0,0.5283,0.5286,0.5296,0.5284,0.5284,0.5276,0.5284,0.5282,0.5283,0.5236,0.5228,0.5281,0.5194,0.5183,0.5144,0.52,0.5138,0.5134,0.5054,0.5055,0.5055,0.5217,0,0,0,0,0,0,0.5282,0.5286,0.5292,0.5285,0.5286,0.5304,0.5285,0.5281,0.5287,0.5287,0.5239,0.523,0.5194,0.515,0.514,0.5193,0.5131,0.5054,0.5054,0.5055,0.5212,0.5223,0.5233,0,0,0,0,0,0.5281,0.5274,0.5293,0.5296,0.5296,0.5305,0.5302,0.5293,0.5288,0.5294,0.5251,0.5232,0.5146,0.5146,0.5134,0.5188,0.5054,0.5054,0.5055,0.5207,0.5221,0.5233,0,0,0,0,0,0,0.5237,0.5273,0.5292,0.5292,0.5314,0.5304,0.5297,0.5303,0.5275,0.5267,0.5223,0.5211,0.5219,0.5154,0.5156,0.5158,0.5101,0.51,0.5221,0.5234,0.5245,0.5266,0.5128,0,0,0,0,0,0.5241,0.5252,0.5288,0.5284,0.5302,0.5307,0.5307,0.5313,0.5293,0.5282,0.5255,0.5215,0.5207,0.518,0.516,0.5133,0.5178,0.5158,0.5169,0.5179,0.5184,0.5341,0.537,0.5057,0.5057,0.5057,0,0,0.5212,0.5239,0.5239,0.5278,0.5286,0.5315,0.5306,0.5315,0.5335,0.5273,0.5271,0.5264,0.5213,0.5216,0.521,0.5166,0.5288,0.518,0.5189,0.5188,0.5346,0.5377,0.5405,0.5057,0.5057,0.5057,0,0,0.5179,0.5202,0.5218,0.5252,0.5295,0.5306,0.5321,0.5338,0.5345,0.5342,0.5331,0.535,0.5287,0.5297,0.5284,0.5327,0.5363,0.5314,0.5365,0.5519,0.5549,0.5575,0.568,0.5714,0.5294,0.5294,0.5295,0,0.5154,0.519,0.5218,0.5261,0.5289,0.5313,0.5348,0.5357,0.5358,0.5378,0.5353,0.5368,0.5338,0.5383,0.5398,0.5363,0.5436,0.5333,0.5544,0.5571,0.5595,0.5696,0.5732,0.5302,0.5301,0.53,0.53,0,0.5156,0.5194,0.5202,0.5276,0.5305,0.5332,0.5377,0.5403,0.5415,0.5439,0.5499,0.5478,0.5495,0.5498,0.5452,0.5598,0.5592,0.5575,0.5535,0.5639,0.5735,0.577,0.5314,0.5311,0.5308,0.5306,0,0,0.5089,0.5189,0.5195,0.5252,0.5326,0.5352,0.5396,0.5461,0.5517,0.5532,0.5614,0.562,0.565,0.5636,0.5627,0.5723,0.5962,0.5714,0.5718,0.5857,0.6297,0.6225,0.6256,0.6011,0.6017,0.6023,0.6301,0,0.5095,0.5178,0.522,0.5293,0.5352,0.5403,0.545,0.551,0.556,0.5642,0.5676,0.5746,0.5692,0.5733,0.5833,0.5946,0.6059,0.5886,0.6138,0.6144,0.6104,0.6296,0.5977,0.6193,0.6334,0.634,0.6344,0,0.5115,0.517,0.5247,0.5355,0.5383,0.5421,0.5533,0.5581,0.5696,0.5742,0.583,0.5875,0.6014,0.5959,0.6227,0.6131,0.6225,0.6294,0.6307,0.6206,0.6138,0.6105,0.6251,0.6015,0.6398,0.6394,0.639,0,0.5105,0.52,0.5263,0.53,0.5411,0.545,0.5503,0.5613,0.5685,0.5832,0.5925,0.6069,0.6184,0.6338,0.6466,0.6392,0.6769,0.6689,0.6705,0.6699,0.6453,0.6415,0.6429,0.6904,0.6903,0.6902,0.6902,0,0.5131,0.5189,0.5264,0.5306,0.5391,0.5458,0.5562,0.5639,0.577,0.5875,0.5989,0.6111,0.63,0.6504,0.6582,0.6776,0.6886,0.6769,0.6798,0.6494,0.6458,0.6255,0.6144,0.6913,0.6911,0.6908,0.6907,0,0.5151,0.5194,0.5284,0.5372,0.5402,0.5469,0.5592,0.5655,0.5801,0.5954,0.6017,0.6237,0.6502,0.6678,0.6956,0.6942,0.6916,0.7137,0.6742,0.6718,0.6447,0.6356,0.6325,0.6152,0.7206,0.7206,0.7206,0,0.5178,0.5221,0.5321,0.5346,0.5388,0.5479,0.5522,0.5657,0.5722,0.6004,0.6065,0.6384,0.6535,0.692,0.6999,0.7181,0.6958,0.6961,0.6743,0.6441,0.6363,0.6182,0.6023,0.6484,0.6478,0.6474,0.647,0,0.5205,0.5234,0.528,0.5338,0.5379,0.5449,0.552,0.5579,0.5734,0.5883,0.6065,0.6224,0.6579,0.6609,0.6865,0.6919,0.6588,0.687,0.6676,0.5915,0.5603,0.5441,0.6268,0.6429,0.6433,0.6436,0.6438,0.644,0.5194,0.5219,0.5236,0.5297,0.5332,0.5346,0.5345,0.5423,0.5521,0.5642,0.5901,0.5996,0.6167,0.6465,0.6504,0.6302,0.6368,0.607,0.6028,0.5908,0.5592,0.632,0.6434,0.6438,0.6441,0.6445,0.6447,0,0.512,0.5129,0.5175,0.5184,0.5165,0.5234,0.5264,0.5205,0.5222,0.5389,0.5517,0.5532,0.5569,0.5669,0.563,0.545,0.5245,0.5299,0.4913,0.4832,0.5577,0.5387,0.5131,0.5131,0.5131,0.5132,0.5132,0.5132,0.5056,0.5036,0.5059,0.4986,0.4989,0.488,0.4861,0.4813,0.4847,0.4761,0.4704,0.4816,0.5,0.5068,0.487,0.4755,0.4388,0.4239,0.4291,0.4712,0.4777,0.4838,0.4632,0.4222,0.4221,0.3315,0.3307,0.3302]},{"header":{"parameterUnit":"m.s-1","parameterCategory":2,"la1":30.2991,"la2":30.254,"lo1":-89.0895,"lo2":-89.0444,"dy":0.0017,"dx":0.0017,"nx":28,"ny":28,"refTime":"2023-07-29T09:00:00:Z","depth":"0","parameterNumber":3,"parameterNumberName":"V-component_of_CURRENTS"},"data":[0,0,0,0,0,0,0,0,0,0,0,0,0,0,0,0,0,0,0,0,0,0,0,0,0,0,0,0,0,0,0,0,0,0,0,0,0,0,0,0,0,0,0,0,0,0,0,0,0,0,0,0,0,0,0,0,0,0,-0.0413,-0.0413,0,-0.0461,-0.0462,-0.0463,-0.0511,-0.0511,-0.0512,-0.0512,-0.0643,-0.0646,-0.0649,0,0,0,0,0,0,0,0,0,0,0,0,0,-0.0344,-0.0346,-0.0413,-0.0413,-0.0413,-0.0461,-0.0462,-0.0463,-0.0511,-0.0511,-0.0512,-0.0512,-0.0642,-0.0646,-0.065,0,0,0,0,0,0,0,0,0,0,0,0,0,-0.0385,-0.0346,-0.0413,-0.044,-0.0443,-0.0461,-0.0462,-0.0463,-0.0511,-0.0511,-0.0512,-0.0512,-0.0641,-0.0646,-0.065,-0.0672,0,0,-0.0665,-0.0667,0,0,0,0,0,0,0,0,-0.0383,-0.0388,-0.0436,-0.0438,-0.0441,-0.0477,-0.0485,-0.0536,-0.0511,-0.0489,-0.0512,-0.0512,-0.0592,-0.0601,-0.0614,-0.0678,-0.0684,-0.0666,-0.0669,-0.0671,-0.0672,0,0,0,0,0,0,0,-0.038,-0.0386,-0.0436,-0.0436,-0.0439,-0.0443,-0.045,-0.0495,-0.0543,-0.0491,-0.0494,-0.0493,-0.0595,-0.0609,-0.0618,-0.0686,-0.0665,-0.067,-0.0673,-0.0675,-0.0698,-0.0695,0,0,0,0,0,0,-0.0367,-0.0384,-0.0435,-0.0437,-0.0408,-0.0444,-0.0452,-0.0468,-0.0541,-0.055,-0.0492,-0.0494,-0.0601,-0.0612,-0.0622,-0.0571,-0.0671,-0.0675,-0.0678,-0.07,-0.0697,-0.0695,0,0,0,0,0,0,-0.0365,-0.0372,-0.0433,-0.0407,-0.0415,-0.0444,-0.0463,-0.0469,-0.0477,-0.0539,-0.0552,-0.0493,-0.0601,-0.0616,-0.0636,-0.058,-0.0677,-0.0682,-0.0703,-0.0699,-0.0696,-0.052,0,0,0,0,0,0,-0.0364,-0.0371,-0.0371,-0.0407,-0.0415,-0.0421,-0.0462,-0.0469,-0.0474,-0.0478,-0.0544,-0.0557,-0.0603,-0.0628,-0.0641,-0.0588,-0.0686,-0.0706,-0.0701,-0.0697,-0.0529,-0.0511,-0.0496,0,0,0,0,0,-0.0361,-0.0343,-0.0371,-0.0376,-0.0418,-0.0419,-0.0423,-0.0448,-0.0473,-0.0462,-0.0503,-0.0555,-0.0609,-0.0631,-0.0646,-0.0593,-0.0708,-0.0702,-0.0697,-0.0537,-0.0515,-0.0497,0,0,0,0,0,0,-0.0286,-0.0348,-0.0379,-0.0375,-0.039,-0.0425,-0.0408,-0.044,-0.0464,-0.0467,-0.0539,-0.0553,-0.0547,-0.0598,-0.062,-0.0586,-0.0662,-0.066,-0.0534,-0.0515,-0.0499,-0.0433,-0.069,0,0,0,0,0,-0.0278,-0.0293,-0.034,-0.0328,-0.0337,-0.0377,-0.038,-0.04,-0.0428,-0.0439,-0.0481,-0.0519,-0.0538,-0.0549,-0.0582,-0.0573,-0.0582,-0.0545,-0.0529,-0.0514,-0.047,-0.043,-0.0404,-0.0678,-0.0678,-0.0678,0,0,-0.0242,-0.0274,-0.0281,-0.0314,-0.0331,-0.0309,-0.0379,-0.037,-0.0339,-0.0451,-0.0419,-0.0472,-0.0526,-0.0503,-0.0504,-0.0538,-0.0443,-0.0508,-0.0495,-0.0458,-0.0421,-0.0395,-0.0371,-0.0674,-0.0675,-0.0675,0,0,-0.0155,-0.021,-0.0189,-0.0202,-0.0221,-0.0246,-0.024,-0.0273,-0.0276,-0.0268,-0.0324,-0.033,-0.038,-0.038,-0.0395,-0.0308,-0.0363,-0.0333,-0.019,-0.0151,-0.0127,-0.0107,-0.0086,-0.0065,-0.0317,-0.0317,-0.0317,0,-0.0101,-0.0092,-0.0172,-0.0143,-0.0126,-0.0209,-0.0155,-0.0169,-0.0197,-0.0173,-0.0231,-0.0242,-0.0303,-0.0242,-0.0211,-0.0265,-0.0264,-0.0261,-0.0126,-0.0105,-0.0087,-0.0071,-0.005,-0.0308,-0.0309,-0.031,-0.0311,0,0.0,0.0011,0.0035,0.0031,0.0035,0.007,0.0035,0.0047,0.0019,0.001,0.005,-0.0022,-0.0016,-0.0043,-0.0105,0.0001,-0.0048,-0.0114,-0.0168,-0.0048,-0.0041,-0.0021,-0.0295,-0.0298,-0.0301,-0.0303,0,0,0.0134,0.0108,0.0123,0.0151,0.0131,0.0155,0.0205,0.0243,0.0308,0.0264,0.0363,0.0315,0.0272,0.0256,0.0181,0.0207,0.0314,0.0115,0.0112,0.015,0.0399,0.0318,0.033,0.027,0.0274,0.0278,0.0351,0,0.0255,0.0334,0.0292,0.0398,0.044,0.0389,0.0453,0.0471,0.047,0.0537,0.0484,0.0527,0.0387,0.04,0.0408,0.0347,0.0373,0.03,0.0265,0.0265,0.0191,0.0353,0.0292,0.0349,0.0369,0.0372,0.0375,0,0.0394,0.042,0.0529,0.058,0.0599,0.0651,0.0744,0.0786,0.0832,0.0837,0.0861,0.0806,0.0849,0.0698,0.0691,0.0651,0.0555,0.0487,0.0486,0.0373,0.0221,0.0231,0.0382,0.0055,0.0403,0.0401,0.0399,0,0.0544,0.0607,0.0699,0.0714,0.0748,0.0813,0.0845,0.0895,0.0966,0.1042,0.1114,0.1108,0.1144,0.1046,0.0882,0.0808,0.086,0.0733,0.0573,0.0564,0.049,0.0467,0.0339,0.0744,0.0744,0.0744,0.0744,0,0.0696,0.0777,0.0776,0.0828,0.0962,0.0948,0.1102,0.1129,0.1217,0.1348,0.1284,0.1402,0.1238,0.1216,0.102,0.0884,0.0972,0.0659,0.0606,0.0544,0.0527,0.0215,0.0068,0.0747,0.0746,0.0746,0.0745,0,0.0842,0.0841,0.0947,0.1,0.1031,0.1128,0.1233,0.1338,0.1411,0.1589,0.1632,0.1677,0.1678,0.1477,0.1348,0.1091,0.0772,0.0846,0.0775,0.0712,0.0221,0.0088,-0.0026,-0.012,0.071,0.0709,0.0708,0,0.0922,0.0987,0.1066,0.112,0.1147,0.1267,0.1352,0.143,0.1545,0.1766,0.1876,0.1951,0.2033,0.181,0.1412,0.1102,0.0804,0.0761,0.0599,0.0245,0.0059,-0.0059,-0.0138,0.0567,0.0565,0.0564,0.0562,0,0.1054,0.1075,0.1133,0.1237,0.1333,0.1456,0.1588,0.1712,0.1845,0.2034,0.2286,0.2392,0.2204,0.1917,0.1447,0.1161,0.0533,0.0714,0.0389,0.0001,-0.0167,-0.0302,0.0441,0.0547,0.0549,0.055,0.0551,0.0551,0.1133,0.1186,0.1238,0.1345,0.1461,0.162,0.1748,0.1927,0.2168,0.2484,0.2572,0.2784,0.2276,0.1677,0.1266,0.0377,0.0459,0.0057,-0.0051,-0.012,-0.0279,0.0426,0.0429,0.043,0.0431,0.0431,0.0432,0,0.1179,0.1222,0.133,0.1453,0.1592,0.1642,0.188,0.2048,0.2356,0.2688,0.2945,0.2768,0.2131,0.1418,0.0285,-0.0312,-0.0516,-0.0641,-0.0839,-0.0862,-0.0206,-0.0289,-0.0491,-0.0491,-0.049,-0.049,-0.049,-0.0489,0.1195,0.1265,0.1313,0.1523,0.1631,0.1834,0.1978,0.2279,0.2548,0.2928,0.3052,0.3123,0.2474,0.0553,-0.0823,-0.1115,-0.1454,-0.1538,-0.1661,-0.1296,-0.1241,-0.1189,-0.1307,-0.1719,-0.172,-0.2298,-0.2304,-0.2309]}],[{"header":{"parameterUnit":"m.s-1","parameterCategory":2,"la1":30.2991,"la2":30.254,"lo1":-89.0895,"lo2":-89.0444,"dy":0.0017,"dx":0.0017,"nx":28,"ny":28,"refTime":"2023-07-29T09:00:00:Z","depth":"2","parameterNumber":2,"parameterNumberName":"U-component_of_CURRENTS"},"data":[0,0,0,0,0,0,0,0,0,0,0,0,0,0,0,0,0,0,0,0,0,0,0,0,0,0,0,0,0,0,0,0,0,0,0,0,0,0,0,0,0,0,0,0,0,0,0,0,0,0,0,0,0,0,0,0,0,0,0.3142,0.3142,0,0.3149,0.3149,0.3148,0.3259,0.3263,0.3266,0.3269,0.3397,0.3397,0.3398,0,0,0,0,0,0,0,0,0,0,0,0,0,0.3048,0.305,0.3142,0.3142,0.3143,0.3149,0.3149,0.3148,0.3259,0.3263,0.3267,0.3271,0.3397,0.3397,0.3398,0,0,0,0,0,0,0,0,0,0,0,0,0,0.307,0.3051,0.3141,0.3203,0.3209,0.3149,0.3149,0.3148,0.3258,0.3263,0.3268,0.3273,0.3397,0.3397,0.3398,0.3299,0,0,0.3399,0.3399,0,0,0,0,0,0,0,0,0.3069,0.3073,0.3193,0.3199,0.3205,0.3214,0.3163,0.3207,0.3256,0.3233,0.3269,0.3275,0.3347,0.3352,0.3332,0.3305,0.3311,0.3399,0.3399,0.3399,0.3399,0,0,0,0,0,0,0,0.3068,0.3072,0.3139,0.3194,0.3201,0.3171,0.318,0.317,0.3259,0.3235,0.3245,0.3253,0.3351,0.3331,0.3336,0.3313,0.3399,0.3399,0.34,0.34,0.3566,0.357,0,0,0,0,0,0,0.3082,0.3071,0.3139,0.314,0.3155,0.3169,0.318,0.3201,0.3257,0.3271,0.3249,0.3259,0.3328,0.3335,0.3341,0.3578,0.3399,0.34,0.34,0.3562,0.3567,0.3571,0,0,0,0,0,0,0.308,0.3088,0.3138,0.3109,0.3115,0.3168,0.3189,0.3199,0.3233,0.3267,0.3284,0.3281,0.3332,0.3341,0.3428,0.3571,0.34,0.34,0.3557,0.3563,0.3569,0.3827,0,0,0,0,0,0,0.3077,0.3088,0.3168,0.3111,0.3117,0.3212,0.3185,0.3195,0.323,0.3243,0.3298,0.3312,0.3337,0.3427,0.3428,0.3569,0.3401,0.3551,0.356,0.3567,0.3813,0.3841,0.3865,0,0,0,0,0,0.3074,0.319,0.3172,0.3184,0.3207,0.3216,0.322,0.3265,0.3227,0.3298,0.332,0.3314,0.3479,0.3429,0.343,0.3574,0.3548,0.3557,0.3566,0.3801,0.3836,0.3865,0,0,0,0,0,0,0.3209,0.3209,0.319,0.3305,0.3297,0.3241,0.3303,0.327,0.3323,0.3333,0.3334,0.3354,0.3495,0.3467,0.3411,0.3643,0.3523,0.3532,0.3702,0.3733,0.3759,0.3722,0.3401,0,0,0,0,0,0.3258,0.3296,0.33,0.3352,0.3376,0.3315,0.3333,0.3335,0.334,0.3366,0.3405,0.3445,0.3513,0.3571,0.3616,0.3705,0.3683,0.3805,0.3831,0.3853,0.3823,0.3939,0.3974,0.3602,0.3602,0.3602,0,0,0.3287,0.3299,0.3313,0.3376,0.3349,0.3396,0.3341,0.3369,0.3415,0.3366,0.348,0.3526,0.355,0.3702,0.3763,0.3713,0.3955,0.3865,0.3885,0.3841,0.3953,0.3989,0.4022,0.3608,0.3607,0.3606,0,0,0.3297,0.3398,0.3415,0.3472,0.3488,0.3475,0.349,0.3486,0.3537,0.3611,0.3617,0.3727,0.3809,0.3889,0.3922,0.4087,0.4078,0.4141,0.4264,0.4382,0.4413,0.444,0.449,0.452,0.417,0.4171,0.4171,0,0.3338,0.3398,0.3423,0.3488,0.3563,0.3513,0.3579,0.3602,0.3633,0.3703,0.3704,0.3871,0.3894,0.4068,0.4155,0.4151,0.4196,0.4155,0.4419,0.4445,0.4468,0.4512,0.4541,0.4185,0.4183,0.4182,0.418,0,0.3367,0.3465,0.3494,0.3554,0.3636,0.3702,0.3753,0.3828,0.3857,0.3901,0.4094,0.4137,0.4247,0.4308,0.4279,0.449,0.4461,0.4433,0.4343,0.4522,0.4556,0.4582,0.4204,0.4199,0.4195,0.4192,0,0,0.3355,0.3481,0.352,0.3584,0.3722,0.377,0.3884,0.4007,0.4084,0.4204,0.4353,0.4491,0.4528,0.4559,0.4584,0.468,0.489,0.4646,0.4646,0.47,0.5142,0.4939,0.4946,0.4953,0.4958,0.4962,0.511,0,0.3376,0.3508,0.3594,0.374,0.383,0.3933,0.404,0.4158,0.4259,0.4409,0.4518,0.466,0.4625,0.4705,0.4813,0.4878,0.4966,0.4849,0.4951,0.4951,0.4756,0.4972,0.4567,0.465,0.5134,0.5138,0.5141,0,0.3442,0.3522,0.3679,0.3858,0.3917,0.4009,0.4229,0.4317,0.4513,0.4608,0.4785,0.4853,0.5044,0.4952,0.5176,0.5129,0.5136,0.5156,0.5163,0.4882,0.4796,0.4542,0.4677,0.5183,0.518,0.5176,0.5174,0,0.3458,0.363,0.3758,0.385,0.4017,0.4123,0.4214,0.44,0.4485,0.4738,0.484,0.5078,0.5185,0.5301,0.5328,0.5307,0.5513,0.5488,0.5298,0.5282,0.4894,0.4834,0.5593,0.5593,0.5593,0.5592,0.5592,0,0.3535,0.3658,0.3777,0.3877,0.3999,0.4154,0.4298,0.4421,0.4605,0.4733,0.4936,0.5055,0.528,0.5406,0.5428,0.5446,0.5609,0.5334,0.5328,0.4972,0.492,0.5319,0.5285,0.5598,0.5596,0.5595,0.5594,0,0.354,0.3653,0.3771,0.3947,0.4002,0.4094,0.426,0.4345,0.4559,0.4728,0.4817,0.5097,0.5312,0.5443,0.5619,0.5533,0.5578,0.5501,0.503,0.4964,0.5248,0.5226,0.5388,0.5383,0.5378,0.5374,0.5371,0,0.3538,0.3598,0.3756,0.379,0.387,0.4001,0.4061,0.4279,0.4371,0.4716,0.4787,0.5073,0.5165,0.5353,0.5354,0.5385,0.5492,0.4943,0.4796,0.5259,0.5239,0.5224,0.5208,0.4409,0.4398,0.4389,0.4382,0,0.3453,0.3518,0.3581,0.3642,0.3722,0.3807,0.3943,0.3988,0.4265,0.4413,0.461,0.4715,0.4945,0.4826,0.4868,0.4819,0.4931,0.4758,0.5434,0.4497,0.4341,0.4318,0.4335,0.4303,0.4311,0.4317,0.4321,0.4324,0.3314,0.3315,0.3368,0.3436,0.3504,0.3572,0.3581,0.374,0.3835,0.4005,0.4232,0.4283,0.4384,0.4286,0.4184,0.4171,0.4488,0.4271,0.4297,0.4334,0.4168,0.401,0.3877,0.3882,0.3886,0.389,0.3894,0,0.307,0.3113,0.3149,0.3199,0.3192,0.335,0.3445,0.3408,0.3438,0.3644,0.3718,0.3455,0.3382,0.3571,0.3414,0.3374,0.3346,0.3255,0.3195,0.3275,0.3346,0.3129,0.2563,0.2559,0.2555,0.2552,0,0,0.2921,0.2867,0.2928,0.286,0.2923,0.2885,0.2911,0.2913,0.2994,0.2924,0.2971,0.3173,0.3391,0.2921,0.2858,0.2695,0.2958,0.259,0.3656,0.3663,0.3728,0.393,0.3685,0,0,0,0,0]},{"header":{"parameterUnit":"m.s-1","parameterCategory":2,"la1":30.2991,"la2":30.254,"lo1":-89.0895,"lo2":-89.0444,"dy":0.0017,"dx":0.0017,"nx":28,"ny":28,"refTime":"2023-07-29T09:00:00:Z","depth":"2","parameterNumber":3,"parameterNumberName":"V-component_of_CURRENTS"},"data":[0,0,0,0,0,0,0,0,0,0,0,0,0,0,0,0,0,0,0,0,0,0,0,0,0,0,0,0,0,0,0,0,0,0,0,0,0,0,0,0,0,0,0,0,0,0,0,0,0,0,0,0,0,0,0,0,0,0,0.0209,0.0209,0,0.0156,0.0156,0.0155,0.009,0.0089,0.0088,0.0087,-0.012,-0.0125,-0.0129,0,0,0,0,0,0,0,0,0,0,0,0,0,0.0225,0.0225,0.021,0.0209,0.0208,0.0156,0.0156,0.0155,0.0091,0.0089,0.0088,0.0087,-0.0119,-0.0124,-0.013,0,0,0,0,0,0,0,0,0,0,0,0,0,0.02,0.0225,0.021,0.0169,0.0165,0.0157,0.0156,0.0155,0.0091,0.0089,0.0088,0.0086,-0.0117,-0.0124,-0.013,-0.014,0,0,-0.0151,-0.0154,0,0,0,0,0,0,0,0,0.0202,0.02,0.0176,0.0172,0.0167,0.0128,0.0085,0.0048,0.0091,0.012,0.0087,0.0085,-0.0051,-0.0063,-0.0066,-0.0149,-0.0158,-0.0152,-0.0156,-0.0159,-0.0161,0,0,0,0,0,0,0,0.0204,0.0202,0.0189,0.0175,0.017,0.0143,0.0138,0.0078,0.0042,0.0117,0.0112,0.0106,-0.0055,-0.0059,-0.0072,-0.0161,-0.0151,-0.0157,-0.0162,-0.0164,-0.0307,-0.0307,0,0,0,0,0,0,0.0212,0.0204,0.0191,0.0187,0.018,0.0144,0.0139,0.0143,0.0046,0.003,0.0107,0.0103,-0.0047,-0.0064,-0.008,-0.013,-0.0159,-0.0165,-0.0169,-0.0307,-0.0307,-0.0307,0,0,0,0,0,0,0.0213,0.0212,0.0193,0.0193,0.0188,0.0146,0.0151,0.0142,0.012,0.004,0.0021,0.009,-0.0049,-0.0071,-0.0142,-0.0138,-0.0168,-0.0174,-0.0308,-0.0307,-0.0307,-0.0209,0,0,0,0,0,0,0.0214,0.0213,0.0198,0.0194,0.0189,0.0169,0.0152,0.0142,0.0119,0.0112,0.0019,-0.0,-0.0052,-0.0131,-0.0148,-0.0147,-0.0179,-0.0308,-0.0307,-0.0307,-0.0213,-0.0206,-0.0199,0,0,0,0,0,0.0215,0.0211,0.0198,0.0195,0.0177,0.0168,0.0162,0.0127,0.012,0.0103,0.0051,0.0002,-0.014,-0.0136,-0.0157,-0.0158,-0.0308,-0.0308,-0.0307,-0.0216,-0.0207,-0.02,0,0,0,0,0,0,0.0208,0.0204,0.019,0.0183,0.0165,0.0156,0.015,0.0127,0.0079,0.0071,-0.0,-0.0024,-0.0084,-0.0134,-0.0127,-0.0197,-0.023,-0.0234,-0.0154,-0.0147,-0.014,-0.0098,-0.0185,0,0,0,0,0,0.0202,0.021,0.0188,0.0189,0.0186,0.0169,0.0156,0.0131,0.01,0.0078,0.0027,-0.0033,-0.0091,-0.013,-0.0189,-0.023,-0.0259,-0.0242,-0.0235,-0.0229,-0.0209,-0.0247,-0.0241,-0.0305,-0.0305,-0.0305,0,0,0.0215,0.0205,0.0214,0.0189,0.0189,0.0194,0.0158,0.0147,0.015,0.0061,0.0051,-0.0018,-0.0098,-0.014,-0.0171,-0.0186,-0.0227,-0.0229,-0.0223,-0.0206,-0.0246,-0.024,-0.0234,-0.0304,-0.0304,-0.0304,0,0,0.0253,0.023,0.0249,0.0232,0.021,0.0203,0.0198,0.0181,0.0167,0.0135,0.0082,0.0026,-0.0062,-0.0101,-0.0138,-0.0129,-0.0192,-0.0162,-0.0095,-0.0132,-0.0126,-0.0122,-0.0146,-0.0145,-0.0156,-0.0155,-0.0155,0,0.0258,0.0272,0.025,0.0253,0.0253,0.0215,0.0232,0.0219,0.0178,0.0176,0.0136,0.0042,-0.0032,-0.0066,-0.0066,-0.0112,-0.0144,-0.0118,-0.0121,-0.0117,-0.0114,-0.0141,-0.014,-0.0151,-0.0151,-0.0152,-0.0152,0,0.03,0.0305,0.0322,0.0325,0.0318,0.0323,0.0307,0.03,0.0279,0.0259,0.0216,0.0128,0.0075,0.0037,-0.0018,-0.0033,-0.0066,-0.0108,-0.0134,-0.0101,-0.0132,-0.0133,-0.0144,-0.0146,-0.0147,-0.0148,0,0,0.0321,0.0349,0.0346,0.0364,0.0349,0.0354,0.0378,0.0379,0.0402,0.034,0.0361,0.0258,0.0212,0.0169,0.0093,0.0057,0.0041,-0.0013,-0.0017,-0.0022,-0.0036,-0.0118,-0.0128,-0.001,-0.001,-0.001,-0.0063,0,0.0356,0.0391,0.0392,0.0436,0.0459,0.0442,0.0476,0.0467,0.0452,0.046,0.0381,0.0356,0.0262,0.0233,0.0183,0.0091,0.0041,0.006,-0.0079,-0.0082,-0.0148,-0.0131,-0.0101,-0.0152,-0.0065,-0.0065,-0.0065,0,0.0365,0.0396,0.0445,0.0502,0.0513,0.053,0.0571,0.0589,0.0591,0.0582,0.0546,0.0488,0.0445,0.0345,0.0221,0.0236,0.0105,0.002,0.0015,-0.0093,-0.0167,-0.0174,-0.0158,-0.0068,-0.0068,-0.0067,-0.0067,0,0.0362,0.0421,0.0468,0.0477,0.0536,0.0562,0.0593,0.0615,0.0666,0.066,0.0697,0.0614,0.0591,0.0446,0.0269,0.0246,0.0119,0.0066,-0.0134,-0.0141,-0.0156,-0.0165,-0.0054,-0.0054,-0.0053,-0.0053,-0.0053,0,0.0363,0.0392,0.0471,0.0485,0.0565,0.0586,0.0664,0.0685,0.0746,0.0851,0.0757,0.0825,0.061,0.0515,0.0328,0.0111,0.0162,-0.0111,-0.016,-0.0124,-0.0129,-0.0093,-0.0097,-0.0055,-0.0055,-0.0055,-0.0054,0,0.0328,0.0371,0.0438,0.0526,0.056,0.0607,0.0735,0.0813,0.0849,0.0988,0.1005,0.0985,0.0882,0.064,0.041,0.0194,-0.0012,-0.0128,-0.0068,-0.0111,-0.0259,-0.0257,-0.0319,-0.0322,-0.0325,-0.0327,-0.0329,0,0.0306,0.0343,0.0466,0.0535,0.0574,0.0666,0.0765,0.0846,0.0969,0.1126,0.1226,0.115,0.1138,0.0754,0.0366,0.0003,-0.0045,-0.0249,-0.0306,-0.0244,-0.0286,-0.0279,-0.0274,-0.0276,-0.0278,-0.0279,-0.028,0,0.0308,0.0355,0.0435,0.0582,0.0691,0.0835,0.0988,0.1115,0.1272,0.1424,0.1626,0.1618,0.1217,0.0857,0.0274,0.0033,-0.0183,-0.0288,-0.022,-0.0231,-0.0214,-0.0252,-0.0246,-0.029,-0.0289,-0.0288,-0.0288,-0.0287,0.0333,0.0402,0.0541,0.068,0.0817,0.104,0.1208,0.1426,0.1688,0.1931,0.1869,0.1844,0.1352,0.0624,0.0189,-0.0275,-0.0265,-0.0436,-0.0427,-0.0419,-0.0422,-0.0413,-0.0525,-0.0525,-0.0525,-0.0526,-0.0526,0,0.0417,0.0514,0.0647,0.086,0.1051,0.1094,0.1405,0.1634,0.2012,0.2082,0.2176,0.1704,0.1231,0.0712,0.0006,-0.0444,-0.0445,-0.056,-0.0458,-0.0447,-0.0437,-0.0437,-0.0546,-0.0547,-0.0548,-0.0549,0,0,0.0484,0.0644,0.0731,0.1062,0.1201,0.1512,0.1716,0.2047,0.2197,0.2315,0.2223,0.196,0.1335,0.082,0.0232,-0.0142,-0.0186,-0.0217,-0.0161,0.0038,0.0054,-0.0338,-0.0323,0,0,0,0,0]}],[{"header":{"parameterUnit":"m.s-1","parameterCategory":2,"la1":30.2991,"la2":30.254,"lo1":-89.0895,"lo2":-89.0444,"dy":0.0017,"dx":0.0017,"nx":28,"ny":28,"refTime":"2023-07-29T09:00:00:Z","depth":"4","parameterNumber":2,"parameterNumberName":"U-component_of_CURRENTS"},"data":[0,0,0,0,0,0,0,0,0,0,0,0,0,0,0,0,0,0,0,0,0,0,0,0,0,0,0,0,0,0,0,0,0,0,0,0,0,0,0,0,0,0,0,0,0,0,0,0,0,0,0,0,0,0,0,0,0,0,0.1481,0.1483,0,0.1589,0.159,0.159,0.1629,0.163,0.163,0.163,0.1747,0.175,0.1753,0,0,0,0,0,0,0,0,0,0,0,0,0,0.1337,0.1339,0.1481,0.1483,0.1485,0.1589,0.159,0.159,0.1629,0.163,0.163,0.1631,0.1746,0.175,0.1753,0,0,0,0,0,0,0,0,0,0,0,0,0,0.141,0.1339,0.1481,0.1524,0.1529,0.1589,0.159,0.159,0.1629,0.163,0.163,0.1631,0.1745,0.1749,0.1753,0.1765,0,0,0.1766,0.1767,0,0,0,0,0,0,0,0,0.1405,0.1414,0.1515,0.1521,0.1527,0.1604,0.1582,0.1652,0.1629,0.1582,0.163,0.1631,0.1705,0.1713,0.1719,0.1771,0.1776,0.1766,0.1768,0.177,0.1771,0,0,0,0,0,0,0,0.14,0.141,0.1515,0.1518,0.1525,0.1548,0.1558,0.1595,0.1632,0.1586,0.1591,0.1617,0.1708,0.1715,0.1722,0.1778,0.1766,0.177,0.1772,0.1774,0.1951,0.1954,0,0,0,0,0,0,0.1403,0.1405,0.1512,0.1519,0.1477,0.1551,0.1561,0.1572,0.1632,0.1644,0.1616,0.1619,0.1708,0.1717,0.1727,0.1832,0.177,0.1774,0.1776,0.1949,0.1952,0.1954,0,0,0,0,0,0,0.1399,0.141,0.1508,0.1472,0.1487,0.1553,0.1564,0.1574,0.1626,0.1656,0.1667,0.1665,0.1709,0.1721,0.1786,0.1833,0.1776,0.178,0.1946,0.195,0.1953,0.1987,0,0,0,0,0,0,0.1394,0.1408,0.1421,0.1472,0.149,0.1559,0.1565,0.1576,0.1642,0.1647,0.1701,0.171,0.171,0.178,0.179,0.1838,0.1783,0.1944,0.1948,0.1952,0.1983,0.1991,0.1998,0,0,0,0,0,0.1388,0.1398,0.142,0.1434,0.1503,0.1561,0.1571,0.1614,0.1644,0.1664,0.1705,0.171,0.1815,0.1785,0.1796,0.1846,0.1941,0.1947,0.1952,0.1979,0.1989,0.1998,0,0,0,0,0,0,0.1354,0.1406,0.143,0.146,0.1518,0.1571,0.1602,0.1643,0.1691,0.1713,0.1733,0.1744,0.1819,0.1833,0.18,0.1913,0.1883,0.1891,0.19,0.191,0.1917,0.1952,0.1786,0,0,0,0,0,0.1352,0.1379,0.1433,0.1474,0.1494,0.156,0.1596,0.1638,0.1689,0.1713,0.1757,0.1806,0.1842,0.1877,0.1909,0.1973,0.2005,0.2017,0.2024,0.203,0.2069,0.212,0.2135,0.1971,0.1971,0.1971,0,0,0.1342,0.1395,0.1402,0.1471,0.1517,0.1556,0.1581,0.1656,0.1712,0.1719,0.1809,0.1836,0.1865,0.1926,0.1963,0.195,0.2099,0.2037,0.2041,0.2078,0.2127,0.2143,0.2157,0.1975,0.1974,0.1974,0,0,0.1366,0.1394,0.1421,0.1468,0.1562,0.1592,0.1625,0.1703,0.1754,0.1838,0.1855,0.1917,0.1985,0.2011,0.203,0.2109,0.2132,0.2126,0.2199,0.2247,0.2261,0.2273,0.2348,0.2366,0.2133,0.2133,0.2134,0,0.135,0.1406,0.1443,0.1499,0.1539,0.1611,0.1652,0.1713,0.1815,0.1869,0.1878,0.2006,0.2027,0.2102,0.213,0.2128,0.2169,0.2152,0.2255,0.2268,0.2281,0.2354,0.2374,0.2136,0.2135,0.2135,0.2135,0,0.1402,0.1445,0.1473,0.155,0.1593,0.1649,0.1724,0.1805,0.1879,0.194,0.2058,0.2094,0.2176,0.2185,0.2186,0.229,0.2297,0.225,0.2226,0.2299,0.2372,0.2393,0.2139,0.2138,0.2137,0.2137,0,0,0.1346,0.147,0.1481,0.1526,0.1624,0.1666,0.1766,0.1862,0.1935,0.2054,0.2154,0.2237,0.2289,0.2318,0.2333,0.2382,0.2497,0.237,0.2371,0.2436,0.264,0.2449,0.2453,0.2463,0.2466,0.2469,0.266,0,0.1367,0.1453,0.1519,0.1598,0.1627,0.1724,0.1797,0.1909,0.1995,0.2109,0.2215,0.2306,0.2328,0.2376,0.2439,0.2466,0.2553,0.2453,0.257,0.2575,0.2387,0.247,0.248,0.2676,0.268,0.2684,0.2686,0,0.1371,0.1442,0.1502,0.1615,0.1636,0.171,0.1832,0.1918,0.2083,0.2163,0.2302,0.2373,0.2518,0.2499,0.266,0.2597,0.2661,0.268,0.2686,0.2516,0.2421,0.2588,0.2723,0.2721,0.2718,0.2715,0.2713,0,0.1286,0.1412,0.1462,0.1501,0.1639,0.1724,0.1814,0.1951,0.2042,0.2224,0.231,0.2463,0.2576,0.2665,0.2761,0.2724,0.2909,0.2842,0.2752,0.2741,0.284,0.2824,0.299,0.2989,0.2989,0.2988,0.2988,0,0.1233,0.128,0.1448,0.1484,0.157,0.1695,0.1803,0.1913,0.2093,0.2196,0.2357,0.2458,0.2626,0.2749,0.2807,0.2849,0.2964,0.2804,0.2778,0.2852,0.2835,0.2855,0.2837,0.2996,0.2994,0.2993,0.2991,0,0.1094,0.1198,0.1284,0.147,0.1529,0.16,0.1813,0.1892,0.2074,0.2222,0.2306,0.252,0.2657,0.2794,0.2936,0.2894,0.294,0.2941,0.3063,0.3035,0.2741,0.2724,0.2849,0.2843,0.2839,0.2835,0.2832,0,0.102,0.1054,0.1249,0.1302,0.1399,0.154,0.1629,0.1857,0.1953,0.2229,0.2293,0.2514,0.2632,0.2711,0.2832,0.2938,0.2917,0.2941,0.2808,0.2765,0.2729,0.2718,0.2706,0.2825,0.2824,0.2823,0.2822,0,0.0898,0.0986,0.1064,0.1175,0.1294,0.1398,0.157,0.1639,0.1899,0.209,0.2248,0.236,0.2512,0.2613,0.2726,0.2785,0.2897,0.2895,0.2903,0.2779,0.2739,0.2704,0.2698,0.2807,0.2809,0.2811,0.2811,0,0.0817,0.0841,0.0959,0.1048,0.1153,0.1232,0.135,0.152,0.1667,0.2,0.2042,0.2277,0.248,0.2539,0.2627,0.2672,0.2636,0.2558,0.2583,0.2601,0.2425,0.2331,0.2283,0,0,0,0,0,0.0722,0.0749,0.0821,0.0925,0.1012,0.1093,0.1286,0.1425,0.169,0.1756,0.1913,0.205,0.2206,0.2321,0.2323,0.2492,0.2618,0.248,0.2531,0.2723,0.2741,0.2551,0,0,0,0,0,0,0.0661,0.0715,0.0778,0.079,0.0833,0.0944,0.1065,0.1256,0.1322,0.1592,0.1691,0.1912,0.2085,0.2181,0.2273,0.2312,0.2303,0.2641,0.2636,0.2713,0.2729,0.2743,0.2554,0,0,0,0,0]},{"header":{"parameterUnit":"m.s-1","parameterCategory":2,"la1":30.2991,"la2":30.254,"lo1":-89.0895,"lo2":-89.0444,"dy":0.0017,"dx":0.0017,"nx":28,"ny":28,"refTime":"2023-07-29T09:00:00:Z","depth":"4","parameterNumber":3,"parameterNumberName":"V-component_of_CURRENTS"},"data":[0,0,0,0,0,0,0,0,0,0,0,0,0,0,0,0,0,0,0,0,0,0,0,0,0,0,0,0,0,0,0,0,0,0,0,0,0,0,0,0,0,0,0,0,0,0,0,0,0,0,0,0,0,0,0,0,0,0,0.031,0.0309,0,0.025,0.025,0.0249,0.023,0.0231,0.0231,0.0232,0.0132,0.0129,0.0126,0,0,0,0,0,0,0,0,0,0,0,0,0,0.0325,0.0325,0.031,0.0309,0.0309,0.0251,0.025,0.0248,0.023,0.0231,0.0232,0.0232,0.0133,0.0129,0.0126,0,0,0,0,0,0,0,0,0,0,0,0,0,0.0295,0.0325,0.031,0.0295,0.0293,0.0251,0.0249,0.0248,0.023,0.0231,0.0232,0.0232,0.0134,0.013,0.0125,0.008,0,0,0.0111,0.0108,0,0,0,0,0,0,0,0,0.0297,0.0294,0.0297,0.0296,0.0294,0.0251,0.0218,0.0191,0.023,0.0251,0.0232,0.0233,0.0169,0.0162,0.0145,0.0075,0.0071,0.011,0.0107,0.0105,0.0104,0,0,0,0,0,0,0,0.0299,0.0296,0.0283,0.0297,0.0295,0.0263,0.026,0.0213,0.0203,0.0249,0.0248,0.0246,0.0168,0.015,0.0143,0.0069,0.011,0.0106,0.0103,0.0101,-0.0034,-0.0034,0,0,0,0,0,0,0.0315,0.0298,0.0285,0.0282,0.03,0.0263,0.0259,0.0262,0.0205,0.0198,0.0245,0.0245,0.0158,0.0148,0.0139,0.0095,0.0105,0.0101,0.0098,-0.0033,-0.0034,-0.0035,0,0,0,0,0,0,0.0316,0.0315,0.0288,0.0291,0.0285,0.0262,0.0265,0.026,0.0247,0.0203,0.0195,0.0238,0.0158,0.0146,0.0108,0.0091,0.0099,0.0094,-0.0032,-0.0033,-0.0034,-0.0002,0,0,0,0,0,0,0.0317,0.0315,0.0325,0.0292,0.0286,0.0268,0.0264,0.0258,0.0245,0.0245,0.0193,0.0185,0.0158,0.0115,0.0103,0.0084,0.0091,-0.0031,-0.0033,-0.0034,-0.0002,-0.0002,-0.0002,0,0,0,0,0,0.0317,0.0328,0.0326,0.0324,0.0299,0.0268,0.0262,0.0246,0.0244,0.0236,0.0209,0.0187,0.0098,0.0111,0.0097,0.0076,-0.0031,-0.0032,-0.0034,-0.0002,-0.0002,-0.0002,0,0,0,0,0,0,0.0338,0.0326,0.0323,0.033,0.0304,0.0267,0.0264,0.0246,0.0216,0.0219,0.0178,0.0167,0.0125,0.0095,0.0111,0.0033,0.0028,0.0024,0.0057,0.0057,0.0057,0.0063,0.0087,0,0,0,0,0,0.0348,0.0352,0.0329,0.0331,0.0326,0.0293,0.0281,0.0264,0.0234,0.0223,0.019,0.0149,0.0104,0.008,0.004,-0.0005,-0.0049,-0.0029,-0.0028,-0.0028,-0.0034,-0.0113,-0.012,-0.004,-0.004,-0.004,0,0,0.0351,0.035,0.0348,0.0335,0.0318,0.0301,0.0287,0.0269,0.0252,0.0214,0.0188,0.0149,0.0093,0.005,0.0027,0.0025,-0.0073,-0.003,-0.0029,-0.0035,-0.0115,-0.0123,-0.013,-0.0041,-0.0041,-0.0041,0,0,0.0354,0.0365,0.0364,0.0351,0.0332,0.0311,0.0307,0.0273,0.0262,0.0227,0.0194,0.0145,0.0088,0.0039,0.0007,-0.0021,-0.0068,-0.0031,-0.003,-0.0106,-0.0114,-0.012,-0.018,-0.0193,-0.0033,-0.0033,-0.0033,0,0.036,0.0364,0.0356,0.0352,0.035,0.0318,0.0311,0.0284,0.024,0.0226,0.0227,0.0121,0.0077,0.0003,-0.0001,-0.0023,-0.0063,-0.0023,-0.0106,-0.0114,-0.0121,-0.0181,-0.0196,-0.0031,-0.0032,-0.0032,-0.0032,0,0.0353,0.0364,0.0365,0.0355,0.0345,0.0336,0.0308,0.029,0.0275,0.0242,0.0184,0.012,0.0058,0.0031,0.0007,-0.0073,-0.0082,-0.0093,-0.0103,-0.0127,-0.0189,-0.0204,-0.0029,-0.003,-0.003,-0.0031,0,0,0.0353,0.036,0.0364,0.038,0.0354,0.0352,0.0324,0.0293,0.0282,0.0225,0.0191,0.0103,0.007,0.003,-0.0018,-0.0088,-0.0176,-0.0107,-0.0111,-0.0159,-0.0334,-0.0286,-0.0298,-0.0196,-0.0199,-0.0201,-0.0353,0,0.0353,0.037,0.0365,0.0379,0.0388,0.0368,0.0352,0.0318,0.0285,0.0242,0.0156,0.0111,0.0069,0.0047,-0.0038,-0.0145,-0.0216,-0.0133,-0.0309,-0.0315,-0.0264,-0.0315,-0.0209,-0.0364,-0.0368,-0.0371,-0.0372,0,0.0347,0.0369,0.039,0.0421,0.0426,0.0426,0.0419,0.0402,0.0324,0.0298,0.0217,0.0153,0.0031,0.0015,-0.0196,-0.0138,-0.0231,-0.0312,-0.032,-0.0299,-0.0296,-0.0339,-0.0401,-0.0399,-0.0397,-0.0395,-0.0393,0,0.0371,0.0392,0.0425,0.0431,0.0444,0.0461,0.0467,0.0419,0.0429,0.0335,0.0322,0.0159,0.0101,-0.0065,-0.0227,-0.0216,-0.0449,-0.0459,-0.0507,-0.0504,-0.0515,-0.0506,-0.0601,-0.0601,-0.06,-0.06,-0.06,0,0.0384,0.0414,0.0449,0.0476,0.0528,0.0515,0.0557,0.0531,0.0497,0.0502,0.0366,0.0322,0.0083,-0.0071,-0.0234,-0.0418,-0.046,-0.0522,-0.0548,-0.0496,-0.0484,-0.0525,-0.0515,-0.0606,-0.0604,-0.0603,-0.0602,0,0.0408,0.0422,0.0476,0.0523,0.0548,0.0591,0.0661,0.0682,0.0636,0.0631,0.0612,0.0435,0.0223,-0.0011,-0.0286,-0.0395,-0.0593,-0.0636,-0.056,-0.0576,-0.0599,-0.0585,-0.0731,-0.0731,-0.0731,-0.0731,-0.0731,0,0.0427,0.0456,0.0538,0.0584,0.0619,0.069,0.0744,0.0755,0.0777,0.0705,0.0698,0.0507,0.0366,0.0004,-0.0252,-0.0577,-0.0597,-0.0688,-0.0659,-0.0606,-0.0617,-0.0603,-0.059,-0.073,-0.073,-0.073,-0.073,0,0.0475,0.0502,0.0555,0.0648,0.0729,0.082,0.0891,0.0915,0.091,0.0888,0.0781,0.0583,0.0343,0.0029,-0.0212,-0.0441,-0.0637,-0.0687,-0.0689,-0.0662,-0.0606,-0.0614,-0.0602,-0.0729,-0.0729,-0.073,-0.073,0,0.0517,0.0562,0.0627,0.0707,0.0805,0.0885,0.0933,0.0959,0.0985,0.0905,0.087,0.0601,0.0445,0.0101,-0.0132,-0.0352,-0.0405,-0.0447,-0.0463,-0.0467,-0.0339,-0.0226,-0.0268,0,0,0,0,0,0.0542,0.0588,0.0676,0.0763,0.0856,0.0915,0.0995,0.1023,0.1025,0.098,0.0931,0.0713,0.0358,0.0179,-0.0034,-0.0152,-0.0462,-0.0406,-0.0524,-0.0725,-0.0726,-0.0616,0,0,0,0,0,0,0.0557,0.0632,0.0676,0.0785,0.0847,0.0965,0.1015,0.1026,0.0991,0.0954,0.0758,0.0693,0.0325,0.0481,-0.003,-0.0101,-0.0194,-0.0574,-0.0577,-0.0725,-0.0725,-0.0726,-0.0613,0,0,0,0,0]}]]